This is the latest recevied weather packets stored in our database for station/object N3FWE. If no packets are shown the sender has not sent any weather packets the latest 10 day(s).
| Time | Temp. | Humidity | Pressure | Rain* | Wind** | Luminosity | Snow |
|---|---|---|---|---|---|---|---|
| 1777730413 | 10° C | 63% | 1015.2 hPa | 0 mm | - | - | - |
| 1777729812 | 8.89° C | 64% | 1015.3 hPa | 0 mm | - | - | - |
| 1777729213 | 8.33° C | 69% | 1015.2 hPa | 0 mm | - | - | - |
| 1777728613 | 8.33° C | 66% | 1015.2 hPa | 0 mm | - | - | - |
| 1777727412 | 8.33° C | 66% | 1015.2 hPa | 0 mm | - | - | - |
| 1777726813 | 7.78° C | 69% | 1015.2 hPa | 0 mm | - | - | - |
| 1777726213 | 7.78° C | 72% | 1015.3 hPa | 0 mm | - | - | - |
| 1777725612 | 7.22° C | 72% | 1015.3 hPa | 0 mm | - | - | - |
| 1777725012 | 7.22° C | 73% | 1015.4 hPa | 0 mm | - | - | - |
| 1777724412 | 7.22° C | 75% | 1015.4 hPa | 0 mm | - | - | - |
| 1777723813 | 7.22° C | 75% | 1015.5 hPa | 0 mm | - | - | - |
| 1777723213 | 7.22° C | 75% | 1015.5 hPa | 0 mm | - | - | - |
| 1777722612 | 6.67° C | 77% | 1015.3 hPa | 0 mm | - | - | - |
| 1777722011 | 6.67° C | 77% | 1015.2 hPa | 0 mm | - | - | - |
| 1777721411 | 6.67° C | 78% | 1015.3 hPa | 0 mm | - | - | - |
| 1777720811 | 6.11° C | 78% | 1015.4 hPa | 0 mm | - | - | - |
| 1777720211 | 6.11° C | 78% | 1015 hPa | 0 mm | - | - | - |
| 1777719611 | 6.11° C | 78% | 1015.2 hPa | 0 mm | - | - | - |
| 1777719012 | 6.11° C | 78% | 1015.2 hPa | 0 mm | - | - | - |
| 1777718413 | 6.11° C | 78% | 1015.2 hPa | 0 mm | - | - | - |
| 1777717813 | 6.11° C | 79% | 1015.1 hPa | 0 mm | - | - | - |
| 1777717213 | 6.11° C | 79% | 1015.3 hPa | 0 mm | - | - | - |
| 1777716613 | 6.11° C | 79% | 1015 hPa | 0 mm | - | - | - |
| 1777716013 | 6.67° C | 79% | 1014.9 hPa | 0 mm | - | - | - |
| 1777715412 | 6.67° C | 81% | 1014.8 hPa | 0 mm | - | - | - |
* Rain latest hour (hover to see other rain measurements)
** Current wind speed in m/s (hover to see current wind gust speed)